This is the latest recevied weather packets stored in our database for station/object F5OWB. If no packets are shown the sender has not sent any weather packets the latest 10 day(s).
| Time | Temp. | Humidity | Pressure | Rain* | Wind** | Luminosity | Snow |
|---|---|---|---|---|---|---|---|
| 1778253080 | 19.44° C | 49% | 1016.9 hPa | 0 mm | - | 218 W/m² | - |
| 1778253014 | 19.44° C | 49% | 1016.9 hPa | 0 mm | - | 221 W/m² | - |
| 1778252956 | 19.44° C | 49% | 1016.9 hPa | 0 mm | - | 216 W/m² | - |
| 1778252893 | 19.44° C | 47% | 1016.9 hPa | 0 mm | - | 237 W/m² | - |
| 1778252831 | 19.44° C | 46% | 1016.9 hPa | 0 mm | - | 248 W/m² | - |
| 1778252773 | 19.44° C | 46% | 1016.9 hPa | 0 mm | - | 287 W/m² | - |
| 1778252707 | 19.44° C | 47% | 1016.9 hPa | 0 mm | - | 353 W/m² | - |
| 1778252647 | 19.44° C | 47% | 1016.9 hPa | 0 mm | - | 378 W/m² | - |
| 1778252585 | 20° C | 47% | 1016.9 hPa | 0 mm | - | 232 W/m² | - |
| 1778252522 | 20° C | 46% | 1016.9 hPa | 0 mm | - | 232 W/m² | - |
| 1778252462 | 20° C | 46% | 1016.9 hPa | 0 mm | - | 135 W/m² | - |
| 1778252402 | 20° C | 46% | 1016.9 hPa | 0 mm | - | 97 W/m² | - |
| 1778252344 | 20° C | 46% | 1016.9 hPa | 0 mm | - | 90 W/m² | - |
| 1778252284 | 20° C | 46% | 1016.9 hPa | 0 mm | - | 91 W/m² | - |
| 1778252224 | 20° C | 45% | 1016.9 hPa | 0 mm | - | 304 W/m² | - |
| 1778252167 | 20° C | 48% | 1016.8 hPa | 0 mm | - | 304 W/m² | - |
| 1778252102 | 20° C | 50% | 1016.9 hPa | 0 mm | - | 399 W/m² | - |
| 1778252039 | 20° C | 48% | 1016.9 hPa | 0 mm | - | 439 W/m² | - |
| 1778251976 | 20° C | 48% | 1016.9 hPa | 0 mm | - | 526 W/m² | - |
| 1778251916 | 20° C | 49% | 1016.9 hPa | 0 mm | - | 510 W/m² | - |
| 1778251856 | 20° C | - | - | - | - | - | - |
| 1778251854 | 20° C | 47% | 1016.9 hPa | 0 mm | - | 517 W/m² | - |
| 1778251790 | 20° C | 48% | 1016.9 hPa | 0 mm | - | 452 W/m² | - |
| 1778251729 | 20° C | 46% | 1016.9 hPa | 0 mm | - | 464 W/m² | - |
| 1778251668 | 20° C | 46% | 1016.9 hPa | 0 mm | - | 478 W/m² | - |
* Rain latest hour (hover to see other rain measurements)
** Current wind speed in m/s (hover to see current wind gust speed)